Location: Asheville, NC
(35.6000°N, 82.5500°W)
Time: 20:08:13
(UTC-04:00)

Vanguard 2 - Pass Details

Date: 14 March 2018
Orbit: 554 x 2939 km, 32.9° (Epoch: 24 June)

Event Time Altitude Azimuth Distance (km) Brightness Sun altitude
Rises 14:22:44 0° 268° (W) 6,182 12.3 50.7°
Reaches altitude 10° 14:26:28 10° 267° (W) 5,377 12.1 50.5°
Maximum altitude 14:43:45 81° 184° (S) 2,957 11.6 49.2°
Drops below altitude 10° 15:00:26 10° 100° (E) 5,213 11.7 47.6°
Sets 15:03:59 0° 99° (E) 5,993 11.9 47.2°
